K3RUP-1 Weather Reports


time (UTC)temp
C
wind
direction
speed
KPH
gust
KPH
rain 1hr
cm
rain 24hr
cm
rain mn
cm
humidity
%
barometer
mb
20260505063611 13 140 0.0 0.0 0.00 0.00 0.00 85 1010.3
20260505063107 13 142 0.0 0.0 0.00 0.00 0.00 84 1010.3
20260505062603 13 142 0.0 0.0 0.00 0.00 0.00 84 1010.3
20260505062101 13 142 0.0 0.0 0.00 0.00 0.00 84 1010.3
20260505061558 13 139 0.0 0.0 0.00 0.00 0.00 83 1010.2
20260505061056 13 140 0.0 0.0 0.00 0.00 0.00 83 1010.2
20260505060553 13 139 0.0 0.0 0.00 0.00 0.00 83 1010.5
20260505060050 13 138 0.0 0.0 0.00 0.00 0.00 82 1010.3
20260505055545 13 139 0.0 0.0 0.00 0.00 0.00 81 1010.4
20260505055042 13 138 0.0 0.0 0.00 0.00 0.00 81 1010.3
20260505054540 14 138 0.0 0.0 0.00 0.00 0.00 81 1010.0
20260505054038 14 138 0.0 0.0 0.00 0.00 0.00 81 1010.3
20260505053534 14 138 0.0 0.0 0.00 0.00 0.00 81 1010.3
20260505053031 14 138 0.0 0.0 0.00 0.00 0.00 81 1010.3
20260505052528 14 138 0.0 0.0 0.00 0.00 0.00 81 1010.4
20260505052026 14 142 0.0 0.0 0.00 0.00 0.00 81 1010.3
20260505051522 14 138 0.0 0.0 0.00 0.00 0.00 81 1010.4
20260505051021 15 143 0.0 0.0 0.00 0.00 0.00 81 1010.2
20260505050518 14 142 0.0 0.0 0.00 0.00 0.00 80 1010.3
20260505041446 15 137 0.0 0.0 0.00 0.00 0.00 83 1010.0
20260505040943 15 137 0.0 0.0 0.00 0.00 0.00 84 1010.5
20260505040441 15 137 0.0 0.0 0.00 0.00 0.00 83 1010.2
20260505035937 15 136 0.0 0.0 0.00 0.00 0.00 83 1010.1
20260505035433 15 145 0.0 0.0 0.00 0.00 0.00 83 1010.2
20260505034931 15 141 0.0 0.0 0.00 0.00 0.00 82 1010.1
20260505034427 15 139 0.0 0.0 0.00 0.00 0.00 82 1010.4
20260505033924 15 146 0.0 0.0 0.00 0.00 0.00 81 1010.0
20260505033421 15 143 0.0 0.0 0.00 0.00 0.00 81 1010.2
20260505032919 15 142 0.0 0.0 0.00 0.00 0.00 81 1010.2
20260505032416 15 142 0.0 0.0 0.00 0.00 0.00 80 1010.2
20260505031912 15 160 0.0 0.0 0.00 0.00 0.00 80 1010.1
20260505031409 16 139 0.0 0.0 0.00 0.00 0.00 79 1010.2
20260505030906 16 148 0.0 0.0 0.00 0.00 0.00 78 1010.2
20260505030402 16 149 0.0 0.0 0.00 0.00 0.00 78 1010.3
20260505025857 16 140 0.0 0.0 0.00 0.00 0.00 77 1010.1
20260505025355 16 147 0.0 0.0 0.00 0.00 0.00 77 1010.3
20260505024854 16 137 0.0 0.0 0.00 0.00 0.00 76 1010.1
20260505024351 16 131 0.0 0.0 0.00 0.00 0.00 76 1010.0
20260505023848 16 143 0.0 0.0 0.00 0.00 0.00 75 1010.2
20260505023345 16 141 0.0 0.0 0.00 0.00 0.00 75 1010.3
20260505022842 16 137 0.0 0.0 0.00 0.00 0.00 74 1010.4
20260505022339 17 145 0.0 0.0 0.00 0.00 0.00 73 1010.1
20260505021837 17 126 0.0 0.0 0.00 0.00 0.00 73 1010.3
20260505021333 17 141 0.0 0.0 0.00 0.00 0.00 73 1010.0
20260505020829 16 150 0.0 0.0 0.00 0.00 0.00 73 1010.1
20260505020324 16 138 0.0 0.0 0.00 0.00 0.00 73 1009.8
20260505015821 16 159 0.0 0.0 0.00 0.00 0.00 72 1010.2
20260505015319 16 144 0.0 0.0 0.00 0.00 0.00 73 1009.9
20260505014816 16 133 0.0 0.0 0.00 0.00 0.00 73 1009.8
20260505014313 16 145 0.0 0.0 0.00 0.00 0.00 73 1010.1
20260505013809 16 143 0.0 0.0 0.00 0.00 0.00 72 1010.2
20260505013307 16 144 0.0 0.0 0.00 0.00 0.00 71 1010.0
20260505012805 16 138 0.0 0.0 0.00 0.00 0.00 71 1009.9
20260505012304 16 142 0.0 0.0 0.00 0.00 0.00 72 1009.7
20260505011758 16 142 0.0 0.0 0.00 0.00 0.00 72 1010.0
20260505011255 16 141 0.0 0.0 0.00 0.00 0.00 72 1009.8
20260505010750 16 142 0.0 0.0 0.00 0.00 0.00 72 1009.9
20260505010247 16 142 0.0 0.0 0.00 0.00 0.00 71 1009.8
20260505005743 16 149 0.0 0.0 0.00 0.00 0.00 72 1009.6
20260505005241 16 150 0.0 0.0 0.00 0.00 0.00 71 1009.5
20260505004738 17 142 0.0 0.0 0.00 0.00 0.00 70 1009.5
20260505004234 17 143 0.0 0.0 0.00 0.00 0.00 69 1009.8
20260505003731 17 143 0.0 0.0 0.00 0.00 0.00 68 1009.5
20260505003229 17 142 0.0 0.0 0.00 0.00 0.00 68 1009.5
20260505002725 17 143 0.0 0.0 0.00 0.00 0.00 67 1009.4
20260505002223 17 143 0.0 0.0 0.00 0.00 0.00 66 1009.3
20260505001720 17 142 0.0 0.0 0.00 0.00 0.00 65 1009.4
20260505001218 17 142 0.0 0.0 0.00 0.00 0.00 65 1009.6
20260505000714 18 142 0.0 0.0 0.00 0.00 0.00 64 1009.4
20260505000212 18 142 0.0 0.0 0.00 0.00 0.00 62 1009.4
20260504235708 18 142 0.0 0.0 0.00 0.00 0.00 62 1009.5
20260504235204 18 143 0.0 0.0 0.00 0.00 0.00 61 1009.7
20260504234702 18 130 0.0 0.0 0.00 0.00 0.00 60 1009.5
20260504234159 18 132 0.0 0.0 0.00 0.00 0.00 60 1009.5
20260504233655 19 143 0.0 0.0 0.00 0.00 0.00 58 1009.5
20260504233151 19 142 0.0 0.0 0.00 0.00 0.00 58 1009.5
20260504232649 19 136 0.0 0.0 0.00 0.00 0.00 57 1009.4
20260504232145 20 134 0.0 0.0 0.00 0.00 0.00 55 1009.5
20260504231642 20 138 0.0 0.0 0.00 0.00 0.00 55 1009.6
20260504231138 20 142 0.0 0.0 0.00 0.00 0.00 54 1009.6
20260504230635 20 134 0.0 0.0 0.00 0.00 0.00 52 1009.4
20260504230134 20 137 0.0 0.0 0.00 0.00 0.00 51 1009.3
20260504225632 20 126 0.0 0.0 0.00 0.00 0.00 50 1009.4
20260504225127 20 111 0.0 0.0 0.00 0.00 0.00 48 1009.5
20260504224624 20 148 0.0 0.0 0.00 0.00 0.00 47 1009.4
20260504224121 20 134 0.0 0.0 0.00 0.00 0.00 48 1009.5
20260504223618 21 139 0.0 0.0 0.00 0.00 0.00 48 1009.5
20260504223114 21 261 0.0 0.0 0.00 0.00 0.00 47 1009.4
20260504222611 21 146 0.0 0.0 0.00 0.00 0.00 47 1009.4
20260504222108 21 193 0.0 0.0 0.00 0.00 0.00 47 1009.5
20260504221605 21 141 0.0 0.0 0.00 0.00 0.00 48 1009.5
20260504221102 21 144 0.0 0.0 0.00 0.00 0.00 47 1009.3
20260504220558 21 111 0.0 1.6 0.00 0.00 0.00 47 1009.5
20260504220056 21 134 0.0 0.0 0.00 0.00 0.00 47 1009.3
20260504215552 21 136 0.0 0.0 0.00 0.00 0.00 47 1009.5
20260504215050 21 141 0.0 0.0 0.00 0.00 0.00 47 1009.4
20260504214545 22 138 0.0 0.0 0.00 0.00 0.00 46 1009.3
20260504214042 22 153 0.0 0.0 0.00 0.00 0.00 46 1009.4
20260504213538 22 144 0.0 0.0 0.00 0.00 0.00 44 1009.3
20260504213036 22 173 0.0 0.0 0.00 0.00 0.00 45 1009.5
20260504212531 22 129 0.0 0.0 0.00 0.00 0.00 45 1009.5
20260504212029 22 141 0.0 0.0 0.00 0.00 0.00 43 1009.4
20260504211526 22 135 0.0 0.0 0.00 0.00 0.00 43 1009.5
20260504211023 22 146 0.0 0.0 0.00 0.00 0.00 43 1009.4
20260504210520 23 139 0.0 1.6 0.00 0.00 0.00 41 1009.4
20260504210016 23 139 0.0 0.0 0.00 0.00 0.00 42 1009.5
20260504205515 23 144 0.0 0.0 0.00 0.00 0.00 40 1009.6
20260504205012 23 151 0.0 0.0 0.00 0.00 0.00 40 1009.7
20260504204510 23 161 0.0 1.6 0.00 0.00 0.00 39 1009.7
20260504204009 23 241 0.0 0.0 0.00 0.00 0.00 40 1009.7
20260504203506 23 124 0.0 0.0 0.00 0.00 0.00 40 1009.7
20260504203003 23 151 0.0 0.0 0.00 0.00 0.00 40 1009.7
20260504202459 23 113 0.0 0.0 0.00 0.00 0.00 40 1009.9
20260504201956 23 127 0.0 0.0 0.00 0.00 0.00 39 1009.9
20260504201453 24 174 0.0 0.0 0.00 0.00 0.00 39 1009.8
20260504200950 23 216 0.0 0.0 0.00 0.00 0.00 41 1010.0
20260504200447 23 108 0.0 0.0 0.00 0.00 0.00 39 1009.8
20260504195944 23 149 0.0 0.0 0.00 0.00 0.00 40 1009.9
20260504195439 23 117 0.0 0.0 0.00 0.00 0.00 37 1010.1
20260504194936 23 125 0.0 0.0 0.00 0.00 0.00 39 1010.1
20260504194432 23 193 1.6 4.8 0.00 0.00 0.00 38 1010.2
20260504193928 23 144 0.0 0.0 0.00 0.00 0.00 39 1010.5
20260504193426 23 156 0.0 0.0 0.00 0.00 0.00 39 1010.5
20260504192925 23 153 0.0 0.0 0.00 0.00 0.00 40 1010.4
20260504192421 23 118 0.0 0.0 0.00 0.00 0.00 38 1010.8
20260504191920 23 126 0.0 0.0 0.00 0.00 0.00 38 1010.6
20260504191418 23 140 0.0 0.0 0.00 0.00 0.00 38 1010.5
20260504190913 23 134 0.0 0.0 0.00 0.00 0.00 41 1010.7
20260504190409 23 141 0.0 0.0 0.00 0.00 0.00 38 1010.7
20260504185906 23 121 0.0 0.0 0.00 0.00 0.00 37 1011.0
20260504185403 23 124 0.0 0.0 0.00 0.00 0.00 39 1010.9
20260504184859 23 141 0.0 0.0 0.00 0.00 0.00 38 1011.4
20260504184355 23 146 0.0 0.0 0.00 0.00 0.00 40 1011.2
20260504183851 23 133 0.0 0.0 0.00 0.00 0.00 40 1011.4
20260504183349 23 123 0.0 0.0 0.00 0.00 0.00 39 1011.5
20260504182846 23 143 0.0 0.0 0.00 0.00 0.00 36 1011.4
20260504182343 23 145 0.0 0.0 0.00 0.00 0.00 39 1011.3
20260504181840 22 99 0.0 0.0 0.00 0.00 0.00 39 1011.7
20260504181337 23 124 0.0 0.0 0.00 0.00 0.00 37 1011.7
20260504180836 23 140 0.0 1.6 0.00 0.00 0.00 37 1011.6
20260504180334 23 205 0.0 0.0 0.00 0.00 0.00 39 1011.7
20260504175832 23 148 0.0 0.0 0.00 0.00 0.00 38 1012.0
20260504175328 23 132 0.0 0.0 0.00 0.00 0.00 38 1011.8
20260504174827 23 96 0.0 0.0 0.00 0.00 0.00 38 1011.8
20260504174324 22 141 0.0 0.0 0.00 0.00 0.00 40 1011.7
20260504173821 22 158 0.0 0.0 0.00 0.00 0.00 39 1011.9
20260504173317 22 94 0.0 0.0 0.00 0.00 0.00 39 1011.9
20260504172814 22 119 0.0 0.0 0.00 0.00 0.00 41 1012.2
20260504172311 22 145 0.0 0.0 0.00 0.00 0.00 42 1012.3
20260504171807 22 130 0.0 0.0 0.00 0.00 0.00 40 1012.2
20260504171304 22 137 0.0 0.0 0.00 0.00 0.00 41 1012.4
20260504170801 22 127 0.0 0.0 0.00 0.00 0.00 41 1012.2
20260504170258 22 136 0.0 0.0 0.00 0.00 0.00 42 1012.4
20260504160216 21 228 0.0 0.0 0.00 0.00 0.00 41 1012.9
20260504151145 20 129 0.0 0.0 0.00 0.00 0.00 43 1013.5
20260504150642 19 147 0.0 0.0 0.00 0.00 0.00 43 1013.4
20260504150139 19 80 0.0 0.0 0.00 0.00 0.00 45 1013.6
20260504141107 17 251 0.0 0.0 0.00 0.00 0.00 49 1013.9
20260504140604 16 141 0.0 0.0 0.00 0.00 0.00 50 1014.0
20260504130528 14 58 0.0 0.0 0.00 0.00 0.00 57 1014.3
20260504110415 10 142 0.0 0.0 0.00 0.00 0.00 76 1014.6
20260504100332 10 143 0.0 0.0 0.00 0.00 0.00 76 1014.6
20260504081726 9 146 0.0 0.0 0.00 0.00 0.00 75 1015.0
20260504081222 10 142 0.0 0.0 0.00 0.00 0.00 75 1014.9
20260504080719 9 142 0.0 0.0 0.00 0.00 0.00 73 1015.1
20260504080215 10 142 0.0 0.0 0.00 0.00 0.00 75 1014.9
20260504070143 9 141 0.0 0.0 0.00 0.00 0.00 78 1015.1